Cosmos 1943 - Orbit

View from above orbital plane
View from above orbital plane
View from above satellite
View from above satellite

Ground track
Ground track

The orbit data is extracted from the following two-line orbital elements,

1 19119U 88039A   13167.82847683  .00000001  00000-0  25398-4 0  8949
2 19119 071.0057 290.1297 0009564 125.1612 041.9122 14.14849852295376
Epoch (UTC): 16 June 2013 19:53:00
Eccentricity: 0.0009564
inclination: 71.0057°
perigee height: 836 km
apogee height: 850 km
right ascension of ascending node: 290.1297°
argument of perigee: 125.1612°
revolutions per day: 14.14849852
mean anomaly at epoch: 41.9122°
orbit number at epoch: 29537

The dashed part of the orbit path shows where the satellite is in the earth's shadow,  

Developed and maintained by Chris Peat, Heavens-Above GmbH. Please read the updated FAQ before sending e-mail. Imprint. DLR